Terug naar catalogus

STARLINK-5659

ActiefCommunicatieVLEO
NORAD 55351·PAYLOAD·🇺🇸 United States

Gelanceerd Jan 26, 2023 vanaf Cape Canaveral Space Force Station

Loading…

Volgende Passages (komende 24 uur)

TLE

VersSource: CelesTrak SupGP

Epoch: Sep 14, 2026, 20:57 UTC

1 55351C 23013W   26257.87340278 -.00038128  00000+0 -13810-2 0  2574
2 55351  43.0011 314.7947 0001594 268.8080 283.1474 15.27597499    14

Volg STARLINK-5659 in realtime met AllMySat

Download on the App Store